Location: *
(49.7115°N, 15.0136°E)
Time: 23:13:34
(UTC+00:00)

STARLINK-69 - Pass Details

Date: 27 February 2020
Orbit: 529 x 530 km, 53.0° (Epoch: 05 April)

Event Time Altitude Azimuth Distance (km) Brightness Sun altitude
Rises 17:24:39 0° 271° (W) 2,669 9.6 -8.3°
Reaches altitude 10° 17:26:54 10° 276° (W) 1,780 7.9 -8.6°
Maximum altitude 17:30:52 54° 354° (N) 654 4.0 -9.3°
Enters shadow 17:34:25 13° 71° (ENE) 1,625 5.4 -9.9°
